Regional Weather Roundup
Issued by NWS Green Bay, WI

Home | Current Version | Previous Version | Text Only | Print | Product List | Glossary On
Versions: 1 2 3 4 5 6 7 8 9 10 11 12 13 14 15 16 17 18 19 20 21 22 23 24 25 26 27 28 29 30 31 32 33 34 35 36 37 38 39 40 41 42 43 44 45 46 47 48 49 50
000
ASUS43 KGRB 131611
RWRGRB

NORTH-CENTRAL AND NORTHEAST WISCONSIN REGIONAL WEATHER ROUNDUP
NATIONAL WEATHER SERVICE GREEN BAY WI
1000 AM CST SAT FEB 13 2016

WIZ005-009-010>012-018-019-131700-
NORTH CENTRAL WISCONSIN

CITY           SKY/WX    TMP DP  RH WIND       PRES   REMARKS
IRONWOOD       CLOUDY    -2  -6  84 W14       30.48S VSB 1   WCI -21
MANITOWISH WTR CLOUDY    -1  -8  73 NW8       30.46R WCI -16
ARBOR VITAE    PTSUNNY    1  -5  73 W6        30.46R WCI -10
EAGLE RIVER    SUNNY      1  -8  67 NW8       30.44R WCI -14
LAND O LAKES   PTSUNNY    3  -5  69 NW8       30.42S WCI -10
RHINELANDER    PTSUNNY   -2 -10  69 W8        30.47R WCI -17
PHILLIPS       CLOUDY    -7 -13  73 NW5       30.50F WCI -18
ANTIGO         SUNNY     -4 -11  70 W12       30.48R WCI -22
TOMAHAWK       PTSUNNY   -4 -12  71 NW8       30.51S WCI -19
MERRILL        SUNNY     -2 -12  63 NW5       30.53S WCI -12
$$

WIZ013-073-131700-
NORTHEAST WISCONSIN

CITY           SKY/WX    TMP DP  RH WIND       PRES   REMARKS
IRON MOUNTAIN  MIX PCPN   2  -7  66 NW16G22   30.44R WCI -18
MARINETTE      SUNNY      3  -6  66 NW10G18   30.51R WCI -12
OCONTO         SUNNY      3  -8  58 NW9       30.54S WCI -11
$$

WIZ017-030-035>037-045-131700-
CENTRAL WISCONSIN

CITY           SKY/WX    TMP DP  RH WIND       PRES   REMARKS
MEDFORD        CLOUDY    -5 -13  68 NW6       30.51R WCI -17
WAUSAU         SUNNY     -1 -12  59 NW7       30.53S WCI -14
MOSINEE        SUNNY     -2 -11  65 NW9       30.54S WCI -18
MARSHFIELD     SUNNY     -3 -15  56 NW8       30.54R WCI -18
WISC RAPIDS    SUNNY     -2 -14  56 N9        30.58F WCI -18
STEVENS POINT  SUNNY     -2 -13  58 NW5       30.55F WCI -12
WAUPACA        SUNNY      4 -11  49 W8        30.58S WCI  -9
SHAWANO        SUNNY      4  -9  54 W8        30.56R WCI -10
CLINTONVILLE   SUNNY      1 -11  55 NW13      30.56S WCI -16
WAUTOMA        SUNNY      0 -14  51 NW6       30.59S WCI -11
$$

WIZ038-039-048-051-131700-
FOX VALLEY

CITY           SKY/WX    TMP DP  RH WIND       PRES   REMARKS
NWS GREEN BAY  SUNNY      1  -9  62 NW14      30.56R WCI -17
APPLETON       SUNNY      0 -11  60 W12       30.53R WCI -18
OSHKOSH        SUNNY     -1 -11  62 NW9       30.56S WCI -16
FOND DU LAC    SUNNY      1 -10  60 NW12      30.57R WCI -16
$$

WIZ022-050-052-131700-
EAST CENTRAL WISCONSIN

CITY           SKY/WX    TMP DP  RH WIND       PRES   REMARKS
EPHRAIM        FAIR       4  -7  60 NW14G21   30.47R WCI -14
STURGEON BAY   SUNNY      1  -8  66 W14       30.52R WCI -17
MANITOWOC      SUNNY      5  -7  57 NW15      30.55R WCI -13
SHEBOYGAN      SUNNY      1 -10  60 W15       30.55R WCI -18
$$

LMZ563-521-522-541>543-131700-
LAKESHORE

STATION/POSITION TIME  TEMP    WIND        PRES    VSBY  WAVE
                       AIR SEA DIR/SP/G                  HT/PER
                 (UTC) (F)     (DEG/KT/KT) (MB)    (MI)  (FT/S)
SHEBOYGAN LKSHOR 1600    2     280/ 15/ 19 1036.8R
KEWAUNEE LKSHORE 1500    0     290/ 12/ 17 1032.1F
ALGOMA MARINA    1541          330/  6/ 13   N/A
SISTER BAY LKSHO 1519    5     360/ 22/ 26   N/A
CHAMBERS ISLAND  1500    4     290/  9/ 16 1032.2R
MENOMINEE LKSHOR 1500    0     310/ 10     1031.7F
$$



USA.gov is the U.S. government's official web portal to all federal, state and local government web resources and services.